Starlink 31177

operational
NORAD ID: 58873 Int'l Des: 2024-019 Owner: SPXS Country: US Constellation: starlink
LEOCIRCULAR

About Starlink 31177

Description loading...

Live Position

Loading 3D Globe...

Upcoming Passes

Altitude History

Altitude vs Time

uPlot chart will show altitude changes over time

Two-Line Element Set

1 58873U 24019W 25259.42236270 .00001328 00000-0 57766-4 0 9995
2 58873 43.0064 152.8192 0001611 301.2156 58.8537 15.27588950 92439
Epoch: Sep 16, 2025 • Age: 36 hours

Current Status

Altitude 495.2 km
Velocity 7.62 km/s
Sub-Earth Point -42.52°S, 101.33°E
Launch Date Jan 29, 2024
Age 1.6 years
Type internet

Technical Details

Classification Payload
Mass 730.00 kg
Dry Mass 700.00 kg
Total Mass 730.00 kg
Length 0.30 m
Diameter 4.10 m
Span 29.00 m
Shape Box + pan
Manufacturer SPXS
Bus Type Starlink V2M
Phase Status In Orbit
Owner/State SPXS/US

Large Constellations

Loading constellations...